Regional Weather Roundup
Issued by NWS Newport/Morehead, NC

Current Version | Previous Version | Graphics & Text | Print | Product List | Glossary Off
Versions: 1 2 3 4 5 6 7 8 9 10 11 12 13 14 15 16 17 18 19 20 21 22 23 24 25 26 27 28 29 30 31 32 33 34 35 36 37 38 39 40 41 42 43 44 45 46 47 48 49 50

000
ASUS42 KMHX 090324
RWRMHX
WEATHER ROUNDUP FOR EASTERN NORTH CAROLINA
NATIONAL WEATHER SERVICE NEWPORT/MOREHEAD CITY NC
1000 PM EST THU DEC 08 2016

NOTE: "FAIR" INDICATES FEW OR NO CLOUDS BELOW 12,000 FEET
WITH NO SIGNIFICANT WEATHER AND/OR OBSTRUCTIONS TO VISIBILITY

NCZ015>017-031-032-045>047-102-103-090400-
NORTH COAST

CITY           SKY/WX    TMP DP  RH WIND       PRES   REMARKS
EDENTON        CLOUDY    45  28  52 CALM      30.17R
ELIZABETH CITY PTCLDY    40  26  57 W10       30.15R
KITTY HAWK     MOCLDY    45  31  57 NW7       30.13R
MANTEO         CLOUDY    46  28  49 N12G17    30.15R

$$

NCZ045>047-081-094-103-104-090400-
CENTRAL COAST

CITY           SKY/WX    TMP DP  RH WIND       PRES   REMARKS
FRISCO         CLOUDY    48  28  46 NW14G22   30.15R

$$

NCZ095-097-098-100-101-090400-
SOUTHERN COAST

CITY           SKY/WX    TMP DP  RH WIND       PRES   REMARKS
BEAUFORT       CLOUDY    48  29  47 NW14      30.18S
CEDAR ISLAND   NOT AVBL
JACKSONVILLE   CLOUDY    43  34  70 NW5       30.20S
PINEY ISLAND   CLOUDY   N/A N/A N/A NW14G20   30.18R
WILMINGTON     MOCLDY    43  27  53 NW6       30.22R


$$

NCZ011>013-027>030-043-044-078>080-089-090>093-098-090400-
COASTAL PLAIN

CITY           SKY/WX    TMP DP  RH WIND       PRES   REMARKS
AHOSKIE        CLOUDY    35  27  74 CALM      30.18R
CLINTON        CLOUDY    44  31  60 CALM      30.22R
ELIZABETHTOWN  CLOUDY    45  28  51 NW3       30.22S
GOLDSBORO      CLOUDY    44  24  47 W3        30.18S
GREENVILLE     CLOUDY    41  27  56 CALM      30.20S
HAVELOCK       MOCLDY    47  24  40 NW9       30.20R
KENANSVILLE    CLOUDY    41  32  70 W3        30.21S
KINSTON        CLOUDY    39  30  70 CALM      30.21R
NEW BERN       MOCLDY    46  25  43 NW7       30.21R
RICHLANDS      MOCLDY    41  38  89 CALM      30.21R
ROCKY MOUNT    MOCLDY    41  23  48 NW8       30.19S
WASHINGTON     MOCLDY    42  25  50 CALM      30.19R
WHITEVILLE     CLOUDY    43  33  69 CALM      30.23R

$$

AMZ130-135-150-152-154-156-158-170-250-252-270-ANZ085-086-088-633-658-670-090400-
MARINE OBSERVATIONS

STATION/POSITION TIME  TEMP    WIND        PRES    WAVE   SWELL
                       AIR SEA DIR/SP/G            HT/PER HT/PER
                 (UTC) (F)     (DEG/KT/KT) (MB)    (FT/S) (FT/S)
CHESAPEAKE LIGHT NOT AVBL
64 E VA BEACH    0250   50 58  310/ 19/ 25 1018.5    4/ 4   2/10
DUCK             0300   45 53  310/ 13/ 17 1020.0
2 E DUCK         NOT AVBL
OREGON INLET     0300   47 54  310/ 15/ 20 1020.2
13E OREGON INLT  NOT AVBL
HATTERAS CG      0300   49 60  310/ 22/ 26 1020.5
DIAMOND BUOY     0250   53 77  330/ 23/ 27 1020.0    5/ 5   2/ 9
CAPE LOOKOUT     0300   48     320/ 17/ 19 1021.5
BEAUFORT LAB     0300   47 55  330/  8/ 12 1021.0
30 SE NEW RVR IN 0308   53 69  350/ 19/ 27 1022.1
30 SE NEW RVR IN NOT AVBL
27 SE WRIGHTSVLE 0308   53 66  340/ 16/ 25 1022.1
5 SE WRIGHTSVLE  0308   48 61  340/ 17/ 29 1022.2
225 S CAPE HAT   0250   73 74  300/ 17/ 19 1017.3    5/ 5   3/ 8
41 SE CHARLESTON 0250   59 73  350/ 21/ 25 1021.6    4/ 4   2/ 9

$$



USA.gov is the U.S. government's official web portal to all federal, state and local government web resources and services.